User: anonymous   Login
Location: Fort Wayne
(41.1310°N, 85.1290°W)
Time: 05:23:49
(UTC-04:00)
Language:

SR - Orbit

View from above orbital plane
View from above orbital plane
View from above satellite
View from above satellite

Ground track
Ground track

The orbit data is extracted from the following two-line orbital elements,

1    46U 60007B   17265.90655653 -.00000015 +00000-0 +20113-4 0  9991
2    46 066.6897 224.1860 0208120 157.4094 203.6345 14.49068051994418
Epoch (UTC): 22 September 2017 21:45:26
Eccentricity: 0.0208120
inclination: 66.6897°
perigee height: 581 km
apogee height: 876 km
right ascension of ascending node: 224.1860°
argument of perigee: 157.4094°
revolutions per day: 14.49068051
mean anomaly at epoch: 203.6345°
orbit number at epoch: 99441

The dashed part of the orbit path shows where the satellite is in the earth's shadow,  

DLR